Location: Fernhill
(41.0167°S, 175.6333°E)
Time: 09:06:19
(UTC+00:00)

Lacrosse 4 Rocket - Pass Details

Date: 08 November 2025
Orbit: 513 x 567 km, 68.0° (Epoch: 12 December)

Event Time Altitude Azimuth Distance (km) Brightness Sun altitude
Rises 09:15:59 0° 211° (SSW) 2,762 6.4 -20.8°
Reaches altitude 10° 09:18:13 10° 214° (SSW) 1,869 5.2 -21.0°
Maximum altitude 09:22:22 65° 295° (WNW) 628 1.5 -21.6°
Enters shadow 09:22:59 56° 341° (NNW) 681 1.5 -21.6°
